Midland, MI

8:49 PM EDT on April 21, 2018 (GMT -0400)
Barstow

Weather History for KIKW - December, 2013

Change the Weather History Date:

Thursday, December 19, 2013

  Actual Average (KMBS) Record (KMBS)
Temperature  
Mean Temperature 24 °F -  
Max Temperature 34 °F 30 °F 50 °F (2002)
Min Temperature 13 °F 17 °F -2 °F (2004)
Degree Days  
Heating Degree Days 42    
Moisture  
Dew Point 21 °F    
Average Humidity 81    
Maximum Humidity 98    
Minimum Humidity 63    
Precipitation  
Precipitation 0.00 in - - ()
Sea Level Pressure  
Sea Level Pressure 29.90 in    
Wind  
Wind Speed 3 mph (NE)    
Max Wind Speed 9 mph    
Max Gust Speed -    
Visibility 9 miles    
Events Snow    
Averages and records for this station are not official NWS values.
T = Trace of Precipitation, MM = Missing Value Source: NWS Daily Summary

Daily Weather History Graph

Daily Weather History Graph

Search for Another Location

Airport or City:

Astronomy

Dec. 19, 2013 Rise Set
Actual Time 8:06 AM EST 5:02 PM EST
Civil Twilight 7:33 AM EST 5:35 PM EST
Nautical Twilight 6:57 AM EST 6:11 PM EST
Astronomical Twilight 6:22 AM EST 6:46 PM EST
Moon 7:31 PM EST (12/19) 9:21 AM EST (12/19)
Length of Visible Light 10h 01m
Length of Day
8h 55m
Waning Gibbous, 95% of the Moon is Illuminated
Dec 19
Waning Gibbous
Dec 25
Last Quarter
Jan 1
New
Jan 7
First Quarter
Jan 15
Full

Hourly Weather History & Observations

Time (EST) Temp. Windchill Dew Point Humidity Pressure Visibility Wind Dir Wind Speed Gust Speed Precip Events Conditions
12:13 AM 23.5 °F 17.6 °F 12.7 °F 63% 29.79 in 10.0 mi SSW 4.6 mph - N/A   Clear
12:32 AM 23.7 °F 19.3 °F 13.1 °F 64% 29.78 in 10.0 mi South 3.5 mph - N/A   Clear
12:52 AM 23.9 °F 19.5 °F 13.5 °F 64% 29.78 in 10.0 mi SSW 3.5 mph - N/A   Clear
1:12 AM 23.9 °F 19.5 °F 13.8 °F 65% 29.77 in 10.0 mi SSW 3.5 mph - N/A   Clear
1:32 AM 23.9 °F 19.5 °F 14.0 °F 66% 29.77 in 10.0 mi SSW 3.5 mph - N/A   Clear
1:53 AM 24.1 °F - 14.5 °F 67% 29.77 in 10.0 mi Calm Calm - N/A   Clear
2:12 AM 23.4 °F - 14.7 °F 70% 29.78 in 10.0 mi Calm Calm - N/A   Clear
2:32 AM 23.7 °F 17.8 °F 15.1 °F 70% 29.78 in 10.0 mi SSW 4.6 mph - N/A   Clear
2:53 AM 23.9 °F - 15.8 °F 71% 29.79 in 10.0 mi Calm Calm - N/A   Clear
3:12 AM 24.8 °F - 16.5 °F 71% 29.79 in 10.0 mi Calm Calm - N/A   Clear
3:32 AM 25.2 °F 20.9 °F 17.1 °F 71% 29.79 in 10.0 mi South 3.5 mph - N/A   Clear
3:53 AM 24.6 °F 20.3 °F 17.1 °F 73% 29.79 in 10.0 mi South 3.5 mph - N/A   Clear
4:12 AM 23.9 °F - 16.7 °F 74% 29.79 in 10.0 mi Calm Calm - N/A   Clear
4:32 AM 22.1 °F - 16.2 °F 78% 29.79 in 10.0 mi Calm Calm - N/A   Clear
4:53 AM 18.9 °F - 14.7 °F 84% 29.79 in 10.0 mi Calm Calm - N/A   Clear
5:12 AM 17.2 °F - 14.0 °F 87% 29.80 in 10.0 mi Calm Calm - N/A   Clear
5:33 AM 16.0 °F - 13.3 °F 89% 29.81 in 10.0 mi Calm Calm - N/A   Clear
5:52 AM 15.8 °F - 14.0 °F 93% 29.81 in 10.0 mi Calm Calm - N/A   Clear
6:12 AM 14.7 °F - 13.3 °F 94% 29.81 in 10.0 mi Calm Calm - N/A   Clear
6:33 AM 15.6 °F - 14.7 °F 96% 29.82 in 10.0 mi Calm Calm - N/A   Clear
6:52 AM 16.2 °F - 14.9 °F 95% 29.82 in 10.0 mi Calm Calm - N/A   Clear
7:12 AM 14.7 °F - 13.5 °F 95% 29.83 in 4.0 mi Calm Calm - N/A   Clear
7:33 AM 16.3 °F - 15.4 °F 96% 29.84 in 7.0 mi Calm Calm - N/A   Clear
7:52 AM 13.6 °F - 12.0 °F 93% 29.84 in 10.0 mi Calm Calm - N/A   Clear
8:12 AM 14.7 °F - 13.3 °F 94% 29.86 in 10.0 mi Calm Calm - N/A   Clear
8:32 AM 14.7 °F - 13.3 °F 94% 29.87 in 10.0 mi Calm Calm - N/A   Clear
8:52 AM 14.0 °F - 12.2 °F 93% 29.87 in 10.0 mi Calm Calm - N/A   Clear
9:12 AM 16.0 °F - 14.7 °F 95% 29.88 in 7.0 mi Calm Calm - N/A   Clear
9:33 AM 15.3 °F - 13.6 °F 93% 29.89 in 10.0 mi Calm Calm - N/A   Clear
9:52 AM 21.9 °F - 21.2 °F 97% 29.90 in 10.0 mi Calm Calm - N/A   Clear
10:12 AM 23.9 °F - 23.4 °F 98% 29.92 in 7.0 mi Calm Calm - N/A   Clear
10:33 AM 25.7 °F - 25.2 °F 98% 29.93 in 7.0 mi Calm Calm - N/A   Clear
10:52 AM 27.1 °F - 26.6 °F 98% 29.94 in 10.0 mi Calm Calm - N/A   Clear
11:12 AM 32.2 °F 28.9 °F 28.8 °F 87% 29.95 in 10.0 mi West 3.5 mph - N/A   Clear
11:33 AM 33.1 °F 26.9 °F 27.7 °F 81% 29.95 in 10.0 mi NW 6.9 mph - N/A   Clear
11:52 AM 33.6 °F 29.4 °F 28.0 °F 80% 29.96 in 10.0 mi NW 4.6 mph - N/A   Clear
12:12 PM 34.2 °F 27.5 °F 27.9 °F 78% 29.96 in 10.0 mi NW 8.1 mph - N/A   Clear
12:32 PM 34.9 °F 29.9 °F 26.4 °F 71% 29.96 in 10.0 mi NW 5.8 mph - N/A   Clear
12:52 PM 34.5 °F 27.3 °F 26.1 °F 71% 29.96 in 10.0 mi NNW 9.2 mph - N/A   Clear
1:13 PM 33.8 °F 29.6 °F 25.3 °F 71% 29.96 in 10.0 mi North 4.6 mph - N/A   Clear
1:32 PM 33.8 °F 28.6 °F 26.2 °F 74% 29.95 in 10.0 mi North 5.8 mph - N/A   Clear
1:53 PM 33.3 °F 26.4 °F 25.7 °F 74% 29.95 in 10.0 mi North 8.1 mph - N/A   Clear
2:12 PM 33.3 °F 28.9 °F 25.5 °F 73% 29.96 in 10.0 mi North 4.6 mph - N/A   Clear
2:32 PM 33.1 °F 26.1 °F 25.3 °F 73% 29.95 in 10.0 mi NE 8.1 mph - N/A   Clear
2:53 PM 33.1 °F 28.7 °F 25.2 °F 73% 29.95 in 10.0 mi North 4.6 mph - N/A   Clear
3:12 PM 33.1 °F 30.0 °F 25.3 °F 73% 29.96 in 10.0 mi North 3.5 mph - N/A   Clear
3:32 PM 32.5 °F 27.1 °F 25.7 °F 76% 29.97 in 10.0 mi ENE 5.8 mph - N/A   Clear
3:53 PM 32.0 °F 26.4 °F 25.3 °F 76% 29.98 in 10.0 mi NE 5.8 mph - N/A   Clear
4:12 PM 32.0 °F 25.6 °F 24.8 °F 75% 29.98 in 10.0 mi NNE 6.9 mph - N/A   Clear
4:32 PM 32.0 °F 26.4 °F 24.6 °F 74% 30.00 in 10.0 mi ENE 5.8 mph - N/A   Clear
4:53 PM 31.5 °F 28.1 °F 24.8 °F 76% 30.00 in 10.0 mi ENE 3.5 mph - N/A   Clear
5:12 PM 30.9 °F 25.2 °F 24.6 °F 77% 29.99 in 10.0 mi ENE 5.8 mph - N/A   Clear
5:33 PM 30.2 °F 25.4 °F 24.6 °F 80% 30.00 in 10.0 mi East 4.6 mph - N/A   Clear
5:52 PM 29.8 °F 24.9 °F 23.9 °F 79% 29.99 in 10.0 mi East 4.6 mph - N/A   Clear
6:12 PM 29.1 °F 25.4 °F 23.5 °F 80% 29.99 in 10.0 mi East 3.5 mph - N/A   Clear
6:33 PM 28.9 °F - 23.4 °F 80% 29.99 in 10.0 mi Calm Calm - N/A   Clear
6:52 PM 29.1 °F - 23.7 °F 80% 29.99 in 10.0 mi Calm Calm - N/A   Clear
7:12 PM 29.5 °F 25.9 °F 23.9 °F 80% 29.98 in 10.0 mi East 3.5 mph - N/A   Clear
7:33 PM 29.1 °F - 23.9 °F 81% 29.99 in 10.0 mi Calm Calm - N/A   Scattered Clouds
7:52 PM 28.4 °F 24.6 °F 23.7 °F 83% 29.98 in 10.0 mi ENE 3.5 mph - N/A   Mostly Cloudy
8:12 PM 29.3 °F 25.6 °F 23.9 °F 80% 29.99 in 10.0 mi NNE 3.5 mph - N/A   Overcast
8:33 PM 30.2 °F 26.7 °F 24.3 °F 79% 29.98 in 10.0 mi NNE 3.5 mph - N/A   Overcast
8:52 PM 30.2 °F 25.4 °F 24.3 °F 79% 29.98 in 10.0 mi NE 4.6 mph - N/A   Overcast
9:12 PM 30.2 °F 26.7 °F 24.3 °F 79% 29.98 in 10.0 mi NE 3.5 mph - N/A   Overcast
9:33 PM 30.2 °F 26.7 °F 24.3 °F 79% 29.98 in 10.0 mi NE 3.5 mph - N/A   Overcast
9:52 PM 30.0 °F 24.1 °F 24.6 °F 80% 29.98 in 10.0 mi ENE 5.8 mph - N/A   Overcast
10:13 PM 29.8 °F 24.9 °F 25.7 °F 85% 29.97 in 4.0 mi NE 4.6 mph - N/A   Overcast
10:32 PM 29.7 °F 24.7 °F 26.6 °F 88% 29.95 in 4.0 mi NE 4.6 mph - N/A Snow Light Snow
10:52 PM 29.3 °F 24.3 °F 27.5 °F 93% 29.94 in 4.0 mi NE 4.6 mph - N/A Snow Light Snow
11:13 PM 29.3 °F 22.3 °F 27.9 °F 94% 29.94 in 3.0 mi NE 6.9 mph - N/A Snow Light Snow
11:32 PM 29.3 °F 22.3 °F 28.2 °F 96% 29.93 in 1.5 mi ENE 6.9 mph - N/A Snow Light Snow
11:52 PM 29.3 °F 22.3 °F 28.2 °F 96% 29.93 in 3.0 mi NE 6.9 mph - N/A Snow Light Snow